Location: Meadowbank Aerodrome
(65.0250°N, 96.0705°W)
Time: 20:12:14
(UTC-06:00)

Cosmos 2221 - Visible Passes

Search period start: 20 November 2014 00:00
Search period end: 30 November 2014 00:00
Orbit: 598 x 620 km, 82.5° (Epoch: 19 November)

Date Brightness Start Highest point End Pass type
(mag) Time Alt. Az. Time Alt. Az. Time Alt. Az.
20 Nov 5.0 18:56:42 10° N 18:56:58 10° N 18:56:58 10° N visible
20 Nov 5.4 20:33:40 10° N 20:33:55 11° N 20:33:55 11° N visible
21 Nov 5.1 19:10:46 10° N 19:11:10 11° N 19:11:10 11° N visible
21 Nov 5.5 20:47:58 10° N 20:48:07 11° N 20:48:07 11° N visible
22 Nov 5.1 19:24:56 10° N 19:25:23 11° N 19:25:23 11° N visible
22 Nov 5.6 21:02:16 10° N 21:02:19 10° N 21:02:19 10° N visible
23 Nov 5.1 19:39:10 10° N 19:39:35 12° N 19:39:35 12° N visible
24 Nov 4.9 18:16:41 10° N 18:16:50 10° NNE 18:16:50 10° NNE visible
24 Nov 5.2 19:53:25 10° N 19:53:47 12° N 19:53:47 12° N visible
25 Nov 4.9 18:30:34 10° N 18:31:03 11° N 18:31:03 11° N visible
25 Nov 5.3 20:07:40 10° N 20:07:59 12° N 20:07:59 12° N visible
26 Nov 4.9 18:44:41 10° N 18:45:15 12° N 18:45:15 12° N visible
26 Nov 5.3 20:21:57 10° N 20:22:12 11° N 20:22:12 11° N visible
27 Nov 5.0 18:58:52 10° N 18:59:27 12° N 18:59:27 12° N visible
27 Nov 5.4 20:36:15 10° NNW 20:36:24 11° NNW 20:36:24 11° NNW visible
28 Nov 5.0 19:13:05 10° N 19:13:40 12° N 19:13:40 12° N visible
28 Nov 5.5 20:50:34 10° NNW 20:50:36 10° NNW 20:50:36 10° NNW visible
29 Nov 4.8 17:50:22 10° N 17:50:55 11° NNE 17:50:55 11° NNE visible
29 Nov 5.0 19:27:20 10° N 19:27:52 13° N 19:27:52 13° N visible
